Location: Newark
(44.0160°N, 116.9215°W)
Time: 08:03:52
(UTC+00:00)

Envisat - Pass Details

Date: 28 November 2019
Orbit: 764 x 766 km, 98.1° (Epoch: 08 December)

Event Time Altitude Azimuth Distance (km) Brightness Sun altitude
Rises 03:20:05 0° 220° (SW) 3,220 6.7 -33.2°
Reaches altitude 10° 03:24:09 10° 253° (WSW) 2,301 6.2 -33.9°
Maximum altitude 03:25:50 12° 273° (W) 2,195 6.1 -34.2°
Drops below altitude 10° 03:27:33 10° 293° (WNW) 2,307 6.2 -34.5°
Sets 03:31:39 0° 325° (NW) 3,240 6.7 -35.3°
